Location: Unspecified
(52.4292°N, 19.3359°E)
Time: 21:56:35
(UTC+02:00)

A-11 Canister half - Pass Details

Date: 25 May 2024
Orbit: 1524 x 1683 km, 47.3° (Epoch: 19 June)

Event Time Altitude Azimuth Distance (km) Brightness Sun altitude
Rises 02:10:55 0° 280° (W) 4,750 11.5 -13.9°
Reaches altitude 10° 02:14:04 10° 276° (W) 3,785 10.9 -13.7°
Maximum altitude 02:23:11 50° 205° (SSW) 1,980 9.2 -13.2°
Drops below altitude 10° 02:32:36 10° 134° (SE) 3,895 11.0 -12.6°
Sets 02:35:54 0° 129° (SE) 4,898 11.5 -12.3°
